Погода в Юрьевеце

Погода в Юрьевеце : погода сейчас, прогноз погоды и архив. Всё, что Вы хотите узнать о погоде в Юрьевеце!

Хотите узнать прогноз погоды в Юрьевеце? Тогда Вам сюда: Погода в Юрьевеце

Поиск расширенной информации на нашем сайте:

Другие новости

Новости СМИ2

Главная страница сайта

Новости сайта

02.10.2013

Напоминаем, что на нашем новом сайте вы можете получить высокодетализированные прогнозы погоды по пунктам России, СНГ и мира (включающие важные для авиации метеовеличины, такие как направление и скорость ветра, видимость, явления погоды, количество и форма облачности, нижняя и верхняя граница облачности), а также ознакомиться с разнообразными материалами по авиационной метеорологии и подборкой полезных ссылок на эту тему.

Сайт Метеоцентр.Азия посвящён разработке технологий оптимизации авиаметеорологического обслуживания, включая проектирование и перспективное создание нескольких автоматизированных авиаметеорологических систем:
- система выпуска высокодетальных прогностических карт явлений погоды для нижнего воздушного пространства по России и ближнему зарубежью;
- система верификации прогнозов TAF (выпускаемых синоптиками официальных АМСГ РФ и ближнего зарубежья) и AUTOTAF (выпускаемых сайтом Метеоцентр.Азия) - выявление ошибок, онлайн-сопоставление с фактической погодой METAR, автоматическое внесение коррективов в прогнозы при резком отклонении фактической погоды от прогноза, подсчёт оправдываемости прогнозов по элементам и в целом;
- система обработки, анализа и отображения авиаметеорологической информации для применения провайдерами метеорологической информации.

Рекомендуем: http://krovat-divan.ru/ недорогие экологичные диван кровати.

Погода в Юрьевеце - сегодня

Время (UTC), дата Ветер
(°,м/с) 
Видим.   Явления Облачность Т
(°С)
Тd
(°С)
f(%) Тe
(°С)
Pmin
(гПа)
dP
(гПа)
Po
(мм)
O2
(г/м3)
Тmin Tmax R s Состояние
почвы
18 19.06.17 260 (З) 10 км  {ливн. осадки}  3/0 средняя 
[Ac As]
+13.8 +11 83 +17  1000.8  739  281           
21 19.06.17 270 (З) 10 км    3/0 средняя 
[Ac As]
+11.8 +9.9 88 +13  1000.7  -0.2  739  284           
00 20.06.17 280 (З) 10 км    3/0 средняя 
[Ac trans]
+11.5 +9.3 86 +12  1001.1  0.3  739  284           
03 20.06.17 280 (З) 20000 м    3/0 средняя 
[Ac trans]
+12.7 +9.1 79 +12  1001.4  0.4  739  283  +10.9    0.8     
06 20.06.17 290 (З) 20000 м    3/0 средняя 
[Ac trans]
+16.8 +9.9 64 +18  1001.4  0.2  740  279           
09 20.06.17 280 (З) 5{10}  20000 м    8/8 600 м 
[Cu med, cong]
+18.8 +8.6 51 +19  1001.5  0.2  740  277           
12 20.06.17 280 (З) 4{12}  10 км    8/8 600 м кучево-дожд. 
[Cb cap]
+17.4 +7.6 53 +18  1001.2  -0.3  739  279           
15 20.06.17 280 (З) 4{10}  10 км    8/0 средняя, верхняя 
[Ac trans|Ci ing]
+18.3 +5.5 43 +19  1000.7  -0.5  739  278    +20.8       
18 20.06.17 200 (Ю) 10 км    6/0 средняя, верхняя 
[Ac trans|Ci sp]
+12.6 +9 79 +14  1000.7  -0.3  739  283           
21 20.06.17 160 (Ю) 10 км    9/9 600 м 
[Sc]
+15.5 +9.6 68 +17  998.5  -2  737  279           
00 21.06.17 210 (ЮЗ) 10 км    10/10 600 м 
[Sc]
+14.8 +10.1 73 +17  995.7  -2.8  735  279           
03 21.06.17 160 (Ю) 4000 м  слаб. дождь  10/10 300 м 
[Frnb|Ns]
+12.6 +11.4 92 +16  992.4  -3.4  733  280  +12.3    10     
06 21.06.17 250 (З) 10 км  в посл. час дождь  8/8 600 м 
[Sc]
+15.1 +13.4 90 +22  991.8  -0.5  732  277           
09 21.06.17 270 (З) 4-11{11}  10 км    8/8 600 м 
[Cu med, cong]
+16.7 +7.9 56 +17  992.7  733  277           
12 21.06.17 270 (З) 5-10{13}  4000 м  слаб. ливневой дождь  8/8 300 м кучево-дожд. 
[Cb cap]
+14.8 +8.1 64 +14  994.8  735  279           
15 21.06.17 250 (З) 2{10}  10 км  в посл. час ливневой дождь  8/8 300 м кучево-дожд. 
[Cb cap]
+12.8 +9.2 79 +14  995.5  0.5  735  281    +18.7     
18 21.06.17 220 (ЮЗ) 1{10}  10 км  в посл. час ливневой дождь  6/6 300 м кучево-дожд. 
[Cb cap]
+10.3 +7.6 83 +11  996.1  0.4  735  284           
21 21.06.17 200 (Ю) 10 км    3/0 средняя 
[Ac trans]
+9.5 +6.9 84 +10  995.7  -0.4  735  285           
00 22.06.17 230 (ЮЗ) 10 км    9/9 600 м 
[Sc]
+9.6 +6.8 83 +10  995  -0.7  734  285           
03 22.06.17 250 (З) 10 км    10/10 600 м 
[Sc]
+9.9 +7.7 86 +10  995.7  0.8  735  284  +9       
06 22.06.17 240 (ЮЗ) 10 км    9/9 600 м 
[Sc]
+11.9 +7.7 75 +12  996.3  0.6  736  283           
09 22.06.17 250 (З) 10 км  в посл. час ливневой дождь  9/9 300 м кучево-дожд. 
[Cb cap]
+12.3 +8.4 77 +13  997.9  1.6  737  283           
12 22.06.17 250 (З) 10 км  {ливн. осадки}  9/9 300 м кучево-дожд. 
[Cb cap]
+13.7 +8.3 70 +14  999.1  1.3  738  282           
15 22.06.17 270 (З) 4{12}  10 км  {ливн. осадки}  8/8 300 м кучево-дожд. 
[Cb cap]
+11.4 +6.7 73 +11  1001.1  1.9  739  285    +15.2  0.3     
18 22.06.17 210 (ЮЗ) 1{11}  10 км  {ливн. осадки}  8/8 600 м 
[Sc]
+10.2 +6.5 78 +11  1002.5  1.3  740  286           
Время (UTC), дата Ветер
(°,м/с) 
Видим.   Явления Облачность Т
(°С)
Тd
(°С)
f(%) Тe
(°С)
Pmin
(гПа)
dP
(гПа)
Po
(мм)
O2
(г/м3)
Тmin Tmax R s Состояние
почвы

Для получения пояснительной информации подведите курсор к названию столбца.

ПОГОДА в Юрьевеце - архив

Всё, что Вы хотите узнать о погоде в Юрьевеце - удобно и подробно!

Выберите нужную дату (начиная с 1 января 2015* года) и нажмите кнопку "Найти".
Будут отображены архивные сводки погоды по пункту Юрьевец, начиная с указанной даты.


Отображать данные в формате CSV (для использования в таблицах Excel)


Внимание! Наш архив погоды предназначен исключительно для личного некоммерческого использования в познавательных целях. Если Вам необходимы официальные справки о состоянии погоды (для производственных, юридических, коммерческих и т.п. целей), обращайтесь в органы Росгидромета.

*Примечание: данная дата относится к архиву по метеостанциям СССР (Россия, СНГ, Балтия).
Архив по метеостанциям Зарубежной Европы и Азии (кроме Китая) хранится 10 дней, по другим регионам земного шара (Китай, Африка, Америка, Австралия, Океания) - 1 день.

Юрьевец - район местоположения метеостанции


Название, широта, долгота, высота метеостанции:
Юрьевец 57.3°ш. 43.1°д. 132 м над ур. моря [Российская Федерация]

Дополнительная информация

В oтличие oт бoльшинства пoгoдных сайтoв мы публикуем пoдрoбную метеoинфoрмацию в детальнoм прoфессиoнальнoм фoрмате.

Характеристики температуры и влажнoсти вoздуха измеряются на высoте 2 м в тени вдали oт зданий и деревьев.
Скoрoсть ветра измеряется на высoте 10 м (на урoвне рoста челoвека скoрoсть ветра ниже в 1.5-2 раза). Если метеoстанция нахoдится в гoрoде или в лесу, тo скoрoсть ветра занижена на 2-4 м/с пo сравнению с oткрытым местoм. Скoрoсть ветра над акватoриями крупных рек и oзёр, а также на вершинах хoлмoв на 2-5 м/с выше, чем в oбычных услoвиях.
Атмoсфернoе давление в разных тoчках местнoсти мoжет значительнo oтличаться oт давления на метеoстанции, в зависимoсти oт услoвий рельефа (при пoдъёме на 10 м давление пoнижается примернo на 1 мм рт.ст.).